Vorticity
8 7 6 5 6 7 8 7 7 7 9 9 3 1 2 1 -1 2 3 7 3 1 2 5 1 4 4 11 12 8 7 8 8 0 8 6 5 6 6 5 5 5 4 4 5
6 7 7 5 5 8 5 6 6 6 6 8 9 -1 -1 1 1 -2 3 0 1 2 4 4 6 5 6 11 10 7 11 2 8 1 6 5 5 6 5 4 7 5 5 5 6
6 6 6 6 6 7 5 7 5 5 5 5 6 11 5 -1 -2 7 1 4 5 6 4 5 6 5 6 9 7 9 4 8 7 6 6 6 5 5 5 8 7 5 6 8 9
5 6 6 6 6 6 7 4 6 4 5 6 5 5 6 5 3 7 5 5 5 5 5 7 6 8 11 11 8 13 9 8 7 7 6 6 5 6 9 2 4 7 7 8 5
5 5 6 6 6 6 5 8 5 5 6 5 5 4 3 3 -11 13 4 4 5 5 8 9 10 11 7 9 9 5 9 7 7 7 7 7 5 3 6 8 6 6 9 8 6
5 5 5 6 6 6 5 5 5 7 8 7 6 6 3 0 9 12 4 7 8 7 8 11 12 10 9 8 6 10 9 7 6 6 6 5 5 5 6 7 6 10 9 9 10
9 7 7 6 6 5 5 6 5 6 7 9 10 7 4 -8 11 7 7 6 7 9 11 9 6 8 6 5 9 7 10 7 5 6 5 5 16 19 6 6 10 5 9 10 8
10 9 7 7 7 6 5 5 6 6 7 7 7 6 1 9 7 6 9 10 11 9 7 6 7 8 13 10 8 9 11 4 -19 5 9 8 6 3 4 3 5 10 8 12 5
9 9 8 8 8 7 6 6 6 6 7 7 6 4 9 12 7 11 10 8 6 6 6 8 8 9 10 16 3 9 4 6 10 2 7 8 -1 -10 3 6 6 9 8 13 0
8 9 7 7 7 7 8 9 10 9 8 12 12 2 12 10 11 7 5 5 5 4 8 8 12 9 11 6 10 2 7 3 9 -4 5 2 7 18 10 18 12 11 13 10 3
9 11 11 9 9 7 7 10 6 10 11 -5 13 0 15 8 6 5 4 5 7 7 9 7 14 5 5 8 7 8 9 6 12 -1 -1 16 18 10 7 15 29 15 14 7 2
9 9 8 8 6 10 9 3 7 12 6 14 9 11 6 5 5 6 7 9 8 10 10 8 7 6 8 8 6 9 9 13 14 -4 10 18 35 2 25 4 22 18 7 4 -3
7 8 7 8 11 6 5 -0 9 9 9 8 7 5 3 4 3 6 7 6 5 8 7 12 1 8 10 5 6 11 13 2 -1 3 18 9 13 6 2 6 8 7 5 5 -6
7 9 10 7 8 4 4 15 6 4 10 3 9 11 10 6 9 8 8 8 8 5 9 7 2 8 8 4 1 23 2 6 9 25 10 18 2 7 3 3 0 15 5 -2 6
6 7 11 11 7 3 12 4 2 5 17 7 17 3 10 7 -1 10 8 9 4 6 9 -2 8 8 8 3 1 2 7 13 21 16 15 4 10 1 16 11 -7 13 3 -6 10
6 6 10 9 6 10 8 5 2 10 13 6 6 8 11 9 9 6 6 9 8 9 9 8 8 9 4 8 4 5 16 -1 18 17 17 -1 14 9 -2 -0 4 11 -7 7 12
7 6 9 9 4 10 4 2 10 5 4 4 7 12 7 3 6 7 6 7 7 8 16 6 14 10 7 8 10 11 14 17 14 6 11 -9 28 -6 -1 -6 23 8 5 7 8
8 7 7 9 1 11 3 4 9 3 4 5 12 12 10 6 14 11 8 13 9 8 -1 13 6 13 13 3 -0 12 12 11 11 9 -20 14 11 11 3 -16 7 8 8 9 9
8 7 8 7 6 5 8 7 -1 8 4 4 3 27 13 18 4 6 16 0 2 13 -7 7 9 11 5 5 6 -1 7 12 9 17 14 10 6 20 10 -11 -5 4 7 5 9
8 8 8 9 11 4 6 1 -1 11 -7 9 9 10 4 11 14 10 17 10 20 7 9 12 7 19 12 7 8 9 2 2 8 11 13 -0 17 -5 3 6 -17 4 6 7 6
10 9 8 10 11 8 1 7 12 0 1 13 2 2 2 -1 5 4 3 -2 12 6 7 6 9 6 9 13 10 6 6 8 7 2 4 7 15 -0 5 -15 3 7 8 8 7
9 10 11 13 11 11 -1 10 4 2 0 7 9 9 9 3 6 10 -1 -3 6 14 5 11 8 11 8 5 7 4 -5 3 1 18 3 -5 -2 -2 -8 2 5 9 10 9 9
8 8 10 7 7 10 9 4 12 6 9 1 8 5 18 11 11 23 17 12 13 7 8 17 13 13 22 30 25 10 14 13 -1 2 22 -12 -7 -14 1 4 4 5 9 9 10
11 5 14 10 6 -0 5 12 9 5 -2 2 10 8 10 6 10 -7 1 15 14 11 9 3 11 -15 -19 -1 -17 -6 -1 7 10 3 -1 -36 -20 5 7 5 9 7 3 11 10
7 7 2 -8 23 22 4 -7 8 16 8 15 7 18 14 3 8 9 11 10 5 3 8 10 3 5 6 9 8 8 6 2 -0 15 -9 -8 -16 13 16 7 9 9 10 11 10
6 7 7 7 9 7 6 25 6 6 -6 -7 -0 7 8 9 12 -12 -4 9 17 14 15 9 2 4 3 14 15 16 16 17 12 14 1 20 -6 19 5 3 6 7 4 13 13
7 7 5 2 11 9 5 10 -1 19 21 22 6 6 7 7 9 11 9 5 -0 1 6 10 6 10 5 8 9 38 38 36 46 8 19 4 5 17 2 3 8 9 5 6 13
Height
3173 3175 3177 3178 3176 3178 3179 3180 3181 3184 3185 3186 3188 3190 3193 3194 3194 3195 3199 3198 3197 3197 3196 3195 3194 3194 3193 3192 3192 3192 3195 3194 3194 3195 3193 3194 3195 3194 3195 3194 3194 3193 3191 3190 3189
3176 3178 3180 3179 3179 3182 3182 3183 3185 3187 3188 3189 3191 3193 3195 3196 3196 3197 3200 3198 3198 3198 3197 3196 3196 3195 3194 3193 3193 3193 3195 3193 3192 3192 3192 3193 3193 3194 3194 3192 3192 3191 3189 3188 3187
3179 3180 3181 3181 3182 3184 3185 3186 3188 3189 3190 3191 3193 3195 3196 3197 3197 3198 3199 3198 3198 3198 3197 3196 3196 3195 3194 3193 3192 3192 3192 3191 3192 3192 3192 3192 3192 3192 3192 3191 3190 3188 3187 3186 3184
3181 3181 3183 3183 3185 3186 3187 3188 3189 3191 3192 3193 3195 3197 3197 3198 3202 3198 3198 3198 3197 3197 3197 3196 3195 3194 3193 3192 3192 3192 3191 3192 3192 3192 3192 3191 3192 3191 3190 3189 3187 3185 3184 3183 3181
3182 3183 3185 3184 3186 3188 3189 3191 3191 3193 3193 3194 3196 3197 3198 3198 3198 3197 3197 3197 3197 3196 3196 3195 3194 3193 3192 3191 3192 3191 3191 3191 3191 3191 3191 3191 3190 3189 3188 3186 3185 3183 3182 3181 3179
3184 3184 3185 3187 3187 3189 3190 3192 3193 3194 3194 3195 3197 3198 3199 3199 3197 3197 3197 3197 3196 3195 3194 3194 3193 3193 3192 3191 3191 3191 3191 3190 3190 3190 3190 3189 3188 3187 3186 3184 3182 3181 3180 3178 3177
3185 3186 3187 3188 3188 3191 3192 3194 3194 3195 3196 3196 3197 3198 3198 3199 3197 3197 3197 3196 3195 3194 3194 3194 3193 3193 3192 3191 3190 3190 3190 3190 3189 3189 3188 3188 3187 3184 3183 3181 3180 3179 3177 3175 3174
3187 3187 3188 3189 3190 3191 3193 3195 3195 3195 3196 3197 3198 3198 3197 3197 3197 3197 3196 3196 3195 3194 3194 3194 3193 3193 3191 3190 3190 3190 3190 3190 3188 3188 3187 3187 3185 3181 3181 3179 3177 3175 3174 3172 3171
3188 3188 3189 3190 3191 3193 3194 3195 3195 3196 3197 3197 3199 3198 3197 3196 3197 3197 3196 3196 3195 3195 3194 3194 3193 3192 3191 3191 3192 3190 3191 3191 3189 3187 3185 3185 3183 3177 3177 3175 3173 3172 3171 3170 3169
3189 3189 3190 3190 3192 3194 3195 3195 3195 3196 3196 3197 3198 3201 3198 3197 3197 3196 3196 3196 3196 3195 3195 3194 3192 3191 3191 3193 3192 3192 3191 3190 3189 3185 3183 3180 3177 3175 3170 3170 3169 3168 3168 3167 3166
3190 3191 3191 3191 3194 3194 3195 3196 3199 3199 3196 3198 3198 3197 3197 3197 3197 3196 3196 3196 3195 3195 3196 3194 3196 3194 3192 3191 3191 3190 3189 3189 3188 3183 3181 3177 3174 3174 3171 3167 3166 3166 3166 3165 3164
3191 3192 3192 3193 3194 3194 3195 3196 3198 3198 3197 3197 3197 3196 3197 3197 3197 3196 3197 3197 3196 3196 3195 3195 3194 3192 3191 3190 3189 3188 3187 3188 3185 3182 3179 3174 3171 3171 3169 3167 3166 3165 3164 3163 3161
3192 3193 3193 3194 3195 3195 3196 3198 3197 3197 3198 3198 3197 3197 3197 3198 3196 3196 3196 3195 3195 3194 3194 3194 3192 3190 3190 3189 3188 3188 3185 3185 3183 3180 3176 3172 3169 3170 3169 3168 3167 3165 3163 3161 3159
3193 3194 3194 3195 3198 3196 3197 3197 3198 3199 3200 3199 3197 3197 3197 3196 3195 3194 3194 3195 3194 3193 3192 3192 3190 3189 3189 3188 3187 3186 3184 3181 3179 3178 3178 3175 3173 3168 3168 3167 3166 3164 3161 3159 3155
3193 3194 3195 3195 3196 3197 3198 3198 3199 3200 3199 3199 3196 3196 3195 3196 3195 3193 3193 3193 3192 3191 3193 3191 3188 3187 3187 3187 3186 3185 3181 3178 3177 3177 3177 3175 3174 3167 3167 3165 3162 3160 3158 3155 3151
3193 3194 3194 3196 3196 3197 3197 3199 3201 3203 3198 3197 3196 3195 3195 3194 3193 3192 3192 3192 3191 3189 3188 3187 3186 3186 3185 3185 3184 3182 3179 3176 3176 3177 3176 3173 3174 3167 3166 3164 3160 3158 3155 3151 3146
3193 3193 3193 3195 3196 3197 3198 3200 3203 3200 3199 3197 3195 3193 3193 3192 3191 3191 3191 3190 3190 3190 3187 3185 3183 3183 3183 3183 3182 3180 3179 3177 3174 3172 3170 3170 3171 3163 3161 3159 3157 3154 3150 3146 3140
3192 3193 3192 3194 3195 3196 3198 3201 3201 3197 3197 3195 3194 3192 3191 3190 3190 3189 3188 3188 3187 3187 3186 3186 3183 3181 3180 3181 3181 3180 3180 3178 3177 3171 3171 3168 3166 3160 3157 3155 3152 3149 3145 3140 3134
3190 3191 3192 3192 3193 3195 3198 3199 3197 3195 3195 3194 3193 3190 3190 3188 3189 3188 3186 3186 3184 3184 3185 3183 3181 3179 3178 3178 3180 3178 3180 3178 3177 3174 3173 3163 3161 3157 3153 3151 3147 3144 3140 3135 3129
3187 3188 3190 3190 3191 3193 3194 3195 3193 3193 3193 3192 3192 3190 3189 3188 3187 3186 3185 3182 3181 3181 3181 3180 3180 3176 3176 3176 3177 3176 3177 3177 3175 3173 3168 3158 3157 3154 3150 3148 3143 3138 3134 3129 3124
3185 3185 3186 3187 3188 3190 3189 3191 3189 3190 3191 3190 3188 3187 3186 3186 3185 3185 3183 3180 3178 3178 3178 3178 3178 3176 3174 3173 3173 3174 3173 3174 3175 3174 3170 3162 3153 3150 3148 3144 3140 3135 3129 3123 3117
3181 3182 3184 3184 3186 3184 3185 3185 3186 3187 3187 3186 3184 3183 3182 3182 3181 3180 3178 3177 3176 3175 3175 3175 3174 3173 3172 3169 3169 3169 3169 3170 3172 3171 3169 3167 3150 3144 3143 3140 3135 3130 3124 3118 3112
3177 3178 3179 3180 3180 3179 3180 3181 3181 3182 3182 3181 3181 3180 3179 3179 3179 3175 3174 3174 3173 3173 3172 3171 3170 3170 3166 3167 3164 3164 3164 3165 3165 3165 3162 3163 3146 3141 3139 3134 3129 3123 3119 3112 3107
3174 3174 3175 3175 3175 3176 3177 3176 3176 3177 3177 3177 3176 3176 3175 3174 3174 3172 3171 3171 3170 3169 3169 3169 3166 3165 3162 3162 3161 3160 3159 3159 3160 3159 3154 3145 3138 3138 3136 3132 3128 3120 3112 3107 3101
3170 3170 3170 3170 3169 3171 3172 3172 3171 3171 3173 3173 3171 3172 3172 3171 3169 3168 3168 3167 3167 3166 3165 3165 3161 3160 3159 3158 3156 3154 3153 3150 3148 3147 3146 3136 3136 3132 3131 3126 3121 3115 3109 3102 3096
3166 3167 3167 3166 3166 3168 3166 3166 3167 3168 3168 3168 3167 3168 3168 3166 3167 3165 3164 3163 3163 3162 3161 3160 3157 3155 3151 3152 3150 3145 3143 3142 3138 3137 3134 3132 3128 3129 3125 3120 3115 3109 3102 3097 3090
3161 3162 3161 3161 3161 3162 3163 3163 3163 3163 3163 3163 3163 3163 3162 3162 3161 3161 3160 3160 3158 3158 3157 3156 3154 3152 3148 3147 3145 3138 3132 3132 3130 3130 3130 3126 3124 3121 3118 3113 3109 3103 3097 3091 3084